QPF
0.02 0.03 0.02 0.01 0.01 0.01 0.01 0.01 0.01 0.01 0.01 0.02 0.02 0.02 0.02 0.03 0.04 0.03 0.03 0.03 0.03 0.06 0.08 0.08 0.08 0.07 0.08 0.07 0.09 0.09 0.07 0.05 0.04 0.03 0.02 0.03 0.02 0.03 0.03 0.02 0.02 0.02 0.02
0.02 0.02 0.02 0.02 0.01 0.01 0.01 0.00 0.00 0.01 0.02 0.02 0.02 0.02 0.02 0.04 0.04 0.04 0.03 0.03 0.04 0.04 0.06 0.06 0.06 0.06 0.08 0.08 0.08 0.06 0.05 0.04 0.03 0.03 0.03 0.02 0.03 0.03 0.03 0.02 0.01 0.01 0.01
0.01 0.01 0.02 0.03 0.03 0.02 0.02 0.02 0.01 0.01 0.02 0.02 0.03 0.03 0.03 0.03 0.03 0.03 0.03 0.04 0.04 0.05 0.05 0.05 0.05 0.07 0.07 0.07 0.05 0.04 0.04 0.04 0.04 0.04 0.04 0.04 0.03 0.03 0.03 0.03 0.01 0.01 0.01
0.02 0.02 0.03 0.04 0.04 0.03 0.02 0.03 0.02 0.02 0.03 0.02 0.02 0.02 0.03 0.03 0.02 0.03 0.03 0.03 0.03 0.04 0.04 0.04 0.05 0.06 0.05 0.05 0.05 0.05 0.05 0.05 0.05 0.05 0.05 0.05 0.04 0.04 0.04 0.03 0.03 0.02 0.02
0.02 0.02 0.02 0.04 0.05 0.04 0.04 0.03 0.02 0.01 0.01 0.01 0.01 0.02 0.02 0.02 0.01 0.02 0.02 0.02 0.03 0.03 0.04 0.04 0.04 0.04 0.04 0.04 0.05 0.05 0.05 0.05 0.04 0.05 0.05 0.04 0.03 0.03 0.03 0.03 0.03 0.03 0.03
0.02 0.01 0.01 0.02 0.03 0.04 0.03 0.02 0.01 0.01 0.01 0.01 0.02 0.02 0.02 0.01 0.01 0.01 0.01 0.02 0.03 0.03 0.03 0.04 0.04 0.03 0.03 0.04 0.04 0.04 0.04 0.04 0.03 0.04 0.04 0.03 0.03 0.03 0.02 0.02 0.03 0.03 0.03
0.01 0.01 0.02 0.03 0.03 0.02 0.01 0.01 0.01 0.01 0.01 0.02 0.02 0.01 0.01 0.01 0.01 0.01 0.01 0.02 0.03 0.03 0.05 0.05 0.04 0.03 0.03 0.03 0.04 0.04 0.03 0.03 0.03 0.05 0.04 0.03 0.03 0.03 0.02 0.02 0.02 0.03 0.04
0.01 0.01 0.02 0.03 0.02 0.01 0.01 0.01 0.01 0.02 0.02 0.02 0.01 0.01 0.01 0.01 0.01 0.01 0.02 0.02 0.02 0.02 0.02 0.03 0.03 0.03 0.02 0.02 0.03 0.04 0.04 0.04 0.03 0.03 0.04 0.04 0.03 0.02 0.02 0.02 0.02 0.02 0.02
0.01 0.02 0.02 0.02 0.01 0.01 0.01 0.01 0.01 0.01 0.01 0.02 0.01 0.01 0.01 0.02 0.03 0.02 0.02 0.02 0.02 0.01 0.01 0.01 0.02 0.03 0.03 0.02 0.03 0.03 0.04 0.04 0.04 0.04 0.04 0.03 0.03 0.02 0.01 0.01 0.02 0.02 0.02
0.01 0.01 0.01 0.02 0.01 0.01 0.01 0.01 0.01 0.01 0.01 0.02 0.02 0.02 0.02 0.03 0.02 0.02 0.01 0.01 0.01 0.01 0.02 0.01 0.01 0.02 0.03 0.03 0.04 0.04 0.04 0.04 0.04 0.04 0.04 0.03 0.02 0.02 0.02 0.02 0.03 0.03 0.03
0.01 0.01 0.01 0.02 0.01 0.01 0.01 0.01 0.01 0.01 0.01 0.02 0.02 0.03 0.02 0.02 0.01 0.01 0.01 0.00 0.01 0.01 0.01 0.01 0.01 0.01 0.01 0.02 0.04 0.06 0.08 0.06 0.05 0.05 0.06 0.06 0.05 0.05 0.04 0.03 0.03 0.03 0.03
0.01 0.01 0.01 0.02 0.01 0.01 0.02 0.02 0.02 0.01 0.01 0.01 0.01 0.02 0.02 0.02 0.02 0.02 0.01 0.01 0.00 0.01 0.01 0.02 0.01 0.01 0.01 0.01 0.02 0.03 0.05 0.05 0.04 0.04 0.05 0.06 0.07 0.06 0.05 0.05 0.04 0.03 0.04
0.02 0.02 0.02 0.02 0.02 0.01 0.02 0.01 0.02 0.02 0.02 0.02 0.01 0.01 0.02 0.02 0.03 0.04 0.03 0.02 0.01 0.01 0.01 0.01 0.00 0.01 0.01 0.02 0.02 0.02 0.02 0.03 0.04 0.03 0.03 0.04 0.06 0.07 0.07 0.06 0.06 0.06 0.05
0.02 0.02 0.02 0.02 0.02 0.02 0.02 0.03 0.03 0.03 0.03 0.03 0.02 0.02 0.02 0.02 0.02 0.02 0.04 0.04 0.03 0.03 0.01 0.00 0.00 0.00 0.01 0.02 0.03 0.02 0.02 0.03 0.03 0.04 0.04 0.04 0.05 0.07 0.07 0.06 0.05 0.06 0.06
0.02 0.02 0.02 0.02 0.02 0.02 0.03 0.03 0.03 0.03 0.02 0.03 0.03 0.03 0.03 0.03 0.03 0.03 0.03 0.03 0.03 0.05 0.04 0.01 0.00 0.00 0.01 0.01 0.01 0.01 0.02 0.02 0.02 0.02 0.02 0.02 0.03 0.04 0.05 0.06 0.07 0.06 0.05
0.02 0.02 0.02 0.01 0.01 0.02 0.02 0.01 0.01 0.02 0.02 0.02 0.02 0.02 0.02 0.02 0.02 0.02 0.02 0.02 0.03 0.05 0.05 0.03 0.02 0.01 0.02 0.02 0.02 0.02 0.01 0.02 0.02 0.02 0.02 0.02 0.02 0.03 0.03 0.04 0.05 0.06 0.06
0.01 0.01 0.01 0.01 0.01 0.01 0.01 0.01 0.01 0.01 0.01 0.01 0.01 0.01 0.02 0.02 0.02 0.02 0.02 0.01 0.01 0.03 0.03 0.04 0.04 0.03 0.03 0.03 0.03 0.02 0.01 0.02 0.02 0.02 0.02 0.02 0.03 0.03 0.03 0.03 0.03 0.04 0.05
0.02 0.01 0.01 0.01 0.02 0.01 0.01 0.01 0.01 0.02 0.02 0.02 0.01 0.01 0.01 0.02 0.02 0.02 0.02 0.02 0.02 0.02 0.02 0.02 0.03 0.03 0.04 0.03 0.02 0.02 0.01 0.01 0.02 0.02 0.02 0.02 0.03 0.03 0.04 0.04 0.03 0.03 0.04
0.01 0.01 0.01 0.01 0.01 0.01 0.01 0.00 0.01 0.02 0.02 0.02 0.02 0.03 0.03 0.03 0.03 0.02 0.02 0.01 0.02 0.02 0.01 0.01 0.01 0.02 0.02 0.02 0.01 0.01 0.02 0.02 0.02 0.02 0.02 0.02 0.02 0.03 0.04 0.05 0.05 0.04 0.04
0.01 0.01 0.01 0.01 0.01 0.01 0.01 0.01 0.01 0.02 0.02 0.02 0.03 0.04 0.03 0.03 0.03 0.02 0.01 0.01 0.01 0.01 0.00 0.00 0.00 0.01 0.01 0.01 0.01 0.01 0.01 0.01 0.01 0.01 0.01 0.01 0.01 0.02 0.04 0.06 0.06 0.05 0.05
0.01 0.01 0.01 0.01 0.01 0.01 0.01 0.01 0.02 0.02 0.02 0.02 0.03 0.02 0.01 0.01 0.02 0.02 0.01 0.01 0.01 0.01 0.00 0.00 0.00 0.00 0.00 0.00 0.00 0.01 0.01 0.01 0.00 0.00 0.00 0.01 0.01 0.02 0.02 0.03 0.05 0.05 0.05
0.02 0.01 0.01 0.01 0.01 0.01 0.01 0.01 0.01 0.01 0.02 0.02 0.03 0.02 0.01 0.01 0.01 0.01 0.01 0.01 0.01 0.00 0.00 0.00 0.00 0.00 0.01 0.01 0.00 0.00 0.00 0.00 0.00 0.00 0.00 0.00 0.01 0.01 0.02 0.03 0.05 0.05 0.05
0.02 0.02 0.01 0.01 0.01 0.01 0.01 0.01 0.02 0.02 0.02 0.02 0.02 0.02 0.01 0.02 0.02 0.01 0.01 0.01 0.01 0.01 0.00 0.00 0.01 0.01 0.01 0.01 0.00 0.00 0.00 0.00 0.01 0.00 0.00 0.00 0.01 0.01 0.01 0.03 0.05 0.05 0.04
0.02 0.02 0.02 0.02 0.02 0.02 0.02 0.02 0.02 0.02 0.02 0.02 0.02 0.02 0.02 0.01 0.02 0.02 0.01 0.01 0.02 0.01 0.01 0.01 0.01 0.01 0.01 0.01 0.01 0.01 0.00 0.01 0.01 0.01 0.01 0.01 0.01 0.02 0.02 0.04 0.06 0.05 0.05
0.02 0.02 0.02 0.02 0.03 0.03 0.03 0.02 0.02 0.03 0.02 0.02 0.02 0.02 0.02 0.03 0.03 0.03 0.02 0.02 0.02 0.01 0.01 0.01 0.01 0.01 0.01 0.01 0.01 0.01 0.01 0.01 0.01 0.01 0.01 0.02 0.02 0.02 0.03 0.04 0.05 0.05 0.03
0.02 0.02 0.01 0.01 0.02 0.02 0.01 0.02 0.02 0.02 0.02 0.02 0.03 0.03 0.03 0.04 0.05 0.04 0.03 0.02 0.02 0.02 0.01 0.01 0.01 0.01 0.01 0.00 0.00 0.00 0.00 0.00 0.00 0.00 0.00 0.00 0.00 0.01 0.02 0.02 0.03 0.04 0.03
MSLP
1016.40 1016.76 1017.10 1017.37 1017.55 1017.64 1017.63 1017.53 1017.37 1017.15 1016.89 1016.59 1016.25 1015.86 1015.42 1014.91 1014.36 1013.77 1013.16 1012.57 1012.01 1011.50 1011.07 1010.70 1010.39 1010.10 1009.82 1009.51 1009.15 1008.72 1008.22 1007.64 1006.99 1006.30 1005.58 1004.86 1004.15 1003.47 1002.84 1002.29 1001.84 1001.49 1001.28
1016.72 1017.06 1017.38 1017.62 1017.80 1017.89 1017.90 1017.84 1017.72 1017.56 1017.35 1017.10 1016.78 1016.38 1015.92 1015.37 1014.76 1014.10 1013.42 1012.76 1012.14 1011.59 1011.11 1010.72 1010.39 1010.10 1009.82 1009.53 1009.20 1008.80 1008.34 1007.80 1007.19 1006.53 1005.81 1005.07 1004.32 1003.58 1002.86 1002.21 1001.64 1001.18 1000.86
1017.04 1017.37 1017.66 1017.89 1018.04 1018.13 1018.15 1018.13 1018.06 1017.94 1017.79 1017.57 1017.28 1016.90 1016.43 1015.86 1015.22 1014.52 1013.80 1013.09 1012.42 1011.82 1011.31 1010.86 1010.49 1010.16 1009.85 1009.53 1009.17 1008.77 1008.29 1007.75 1007.15 1006.48 1005.77 1005.01 1004.24 1003.46 1002.71 1002.00 1001.37 1000.85 1000.46
1017.39 1017.71 1017.98 1018.18 1018.32 1018.40 1018.42 1018.42 1018.37 1018.30 1018.18 1017.99 1017.73 1017.38 1016.92 1016.36 1015.71 1015.01 1014.27 1013.54 1012.86 1012.22 1011.67 1011.18 1010.75 1010.36 1009.98 1009.59 1009.17 1008.70 1008.17 1007.59 1006.95 1006.26 1005.53 1004.76 1003.98 1003.19 1002.42 1001.71 1001.07 1000.53 1000.14
1017.76 1018.08 1018.34 1018.52 1018.63 1018.69 1018.72 1018.71 1018.68 1018.62 1018.52 1018.36 1018.12 1017.78 1017.34 1016.80 1016.18 1015.49 1014.78 1014.06 1013.38 1012.74 1012.16 1011.63 1011.14 1010.68 1010.22 1009.74 1009.23 1008.67 1008.06 1007.41 1006.71 1005.97 1005.20 1004.42 1003.62 1002.84 1002.09 1001.39 1000.78 1000.27 999.89
1018.15 1018.48 1018.72 1018.89 1018.98 1019.02 1019.02 1019.00 1018.96 1018.90 1018.80 1018.65 1018.42 1018.10 1017.68 1017.17 1016.58 1015.93 1015.26 1014.57 1013.91 1013.28 1012.69 1012.14 1011.61 1011.08 1010.54 1009.98 1009.37 1008.71 1008.01 1007.27 1006.50 1005.70 1004.90 1004.09 1003.29 1002.51 1001.78 1001.11 1000.53 1000.06 999.71
1018.54 1018.87 1019.11 1019.26 1019.33 1019.35 1019.33 1019.29 1019.23 1019.15 1019.04 1018.88 1018.65 1018.34 1017.94 1017.46 1016.90 1016.29 1015.66 1015.01 1014.38 1013.77 1013.19 1012.62 1012.06 1011.48 1010.88 1010.24 1009.55 1008.81 1008.03 1007.22 1006.38 1005.53 1004.68 1003.85 1003.04 1002.26 1001.54 1000.90 1000.34 999.90 999.58
1018.88 1019.23 1019.47 1019.61 1019.66 1019.66 1019.62 1019.55 1019.47 1019.37 1019.24 1019.07 1018.83 1018.52 1018.14 1017.67 1017.14 1016.57 1015.97 1015.36 1014.75 1014.16 1013.58 1013.00 1012.42 1011.81 1011.16 1010.47 1009.73 1008.94 1008.11 1007.25 1006.37 1005.49 1004.61 1003.75 1002.92 1002.14 1001.42 1000.77 1000.22 999.78 999.47
1019.16 1019.52 1019.75 1019.89 1019.93 1019.92 1019.86 1019.78 1019.68 1019.57 1019.43 1019.24 1019.00 1018.70 1018.32 1017.87 1017.36 1016.81 1016.22 1015.63 1015.03 1014.44 1013.85 1013.26 1012.65 1012.02 1011.35 1010.64 1009.88 1009.08 1008.24 1007.37 1006.48 1005.58 1004.68 1003.81 1002.96 1002.15 1001.41 1000.74 1000.17 999.71 999.37
1019.33 1019.69 1019.93 1020.06 1020.10 1020.09 1020.03 1019.96 1019.86 1019.75 1019.61 1019.43 1019.20 1018.90 1018.53 1018.10 1017.60 1017.05 1016.47 1015.87 1015.26 1014.65 1014.04 1013.42 1012.79 1012.14 1011.46 1010.74 1009.99 1009.21 1008.39 1007.54 1006.67 1005.79 1004.90 1004.01 1003.15 1002.31 1001.53 1000.82 1000.20 999.69 999.30
1019.38 1019.73 1019.96 1020.10 1020.15 1020.15 1020.11 1020.06 1019.98 1019.90 1019.78 1019.63 1019.42 1019.15 1018.80 1018.38 1017.90 1017.36 1016.77 1016.15 1015.51 1014.86 1014.21 1013.55 1012.88 1012.21 1011.52 1010.82 1010.09 1009.34 1008.57 1007.77 1006.95 1006.10 1005.23 1004.36 1003.48 1002.62 1001.79 1001.03 1000.35 999.77 999.32
1019.28 1019.62 1019.85 1019.99 1020.06 1020.09 1020.08 1020.07 1020.04 1019.99 1019.92 1019.82 1019.65 1019.42 1019.12 1018.73 1018.26 1017.73 1017.13 1016.49 1015.81 1015.11 1014.41 1013.70 1012.99 1012.30 1011.60 1010.91 1010.22 1009.52 1008.80 1008.07 1007.31 1006.51 1005.68 1004.82 1003.95 1003.07 1002.21 1001.39 1000.65 1000.01 999.48
1019.06 1019.37 1019.60 1019.75 1019.84 1019.90 1019.94 1019.98 1020.00 1020.02 1020.01 1019.97 1019.87 1019.70 1019.44 1019.10 1018.66 1018.14 1017.54 1016.88 1016.17 1015.42 1014.67 1013.91 1013.17 1012.44 1011.74 1011.06 1010.40 1009.74 1009.09 1008.43 1007.73 1007.00 1006.22 1005.40 1004.54 1003.66 1002.78 1001.93 1001.14 1000.43 999.84
1018.73 1019.02 1019.24 1019.39 1019.51 1019.61 1019.70 1019.78 1019.87 1019.95 1020.01 1020.04 1020.01 1019.90 1019.71 1019.42 1019.02 1018.53 1017.94 1017.27 1016.54 1015.77 1014.98 1014.19 1013.41 1012.66 1011.95 1011.28 1010.65 1010.04 1009.45 1008.85 1008.22 1007.56 1006.84 1006.06 1005.24 1004.37 1003.50 1002.63 1001.81 1001.06 1000.42
1018.34 1018.61 1018.81 1018.98 1019.11 1019.24 1019.37 1019.51 1019.65 1019.79 1019.91 1020.00 1020.03 1019.99 1019.85 1019.62 1019.27 1018.82 1018.26 1017.61 1016.88 1016.10 1015.30 1014.48 1013.69 1012.93 1012.22 1011.57 1010.96 1010.39 1009.85 1009.31 1008.75 1008.14 1007.49 1006.77 1006.00 1005.17 1004.32 1003.47 1002.65 1001.88 1001.20
1017.95 1018.18 1018.38 1018.54 1018.69 1018.84 1019.00 1019.17 1019.35 1019.53 1019.69 1019.83 1019.90 1019.91 1019.83 1019.64 1019.34 1018.93 1018.41 1017.79 1017.09 1016.33 1015.54 1014.74 1013.96 1013.21 1012.52 1011.88 1011.31 1010.78 1010.28 1009.78 1009.28 1008.74 1008.15 1007.49 1006.78 1006.01 1005.20 1004.39 1003.59 1002.82 1002.12
1017.58 1017.79 1017.97 1018.13 1018.28 1018.45 1018.62 1018.81 1019.01 1019.21 1019.39 1019.54 1019.64 1019.68 1019.62 1019.47 1019.21 1018.85 1018.37 1017.79 1017.14 1016.42 1015.67 1014.91 1014.16 1013.45 1012.79 1012.19 1011.65 1011.16 1010.70 1010.25 1009.80 1009.31 1008.77 1008.18 1007.53 1006.82 1006.08 1005.32 1004.55 1003.81 1003.10
1017.25 1017.44 1017.60 1017.76 1017.91 1018.08 1018.26 1018.45 1018.65 1018.84 1019.02 1019.18 1019.28 1019.31 1019.27 1019.13 1018.90 1018.56 1018.12 1017.60 1017.00 1016.34 1015.66 1014.96 1014.28 1013.63 1013.03 1012.48 1011.99 1011.54 1011.12 1010.71 1010.29 1009.85 1009.36 1008.82 1008.22 1007.58 1006.90 1006.19 1005.47 1004.76 1004.06
1016.97 1017.13 1017.28 1017.43 1017.58 1017.74 1017.92 1018.10 1018.29 1018.47 1018.63 1018.76 1018.84 1018.86 1018.81 1018.67 1018.44 1018.13 1017.73 1017.25 1016.71 1016.13 1015.53 1014.92 1014.32 1013.76 1013.24 1012.76 1012.32 1011.92 1011.54 1011.17 1010.78 1010.36 1009.91 1009.40 1008.85 1008.26 1007.63 1006.97 1006.30 1005.62 1004.94
1016.70 1016.85 1016.98 1017.12 1017.27 1017.43 1017.60 1017.77 1017.94 1018.10 1018.24 1018.34 1018.39 1018.38 1018.30 1018.15 1017.92 1017.62 1017.25 1016.83 1016.35 1015.85 1015.34 1014.83 1014.34 1013.88 1013.45 1013.05 1012.69 1012.34 1012.00 1011.66 1011.29 1010.89 1010.45 1009.96 1009.43 1008.86 1008.26 1007.64 1007.01 1006.36 1005.70
1016.42 1016.55 1016.68 1016.81 1016.96 1017.11 1017.28 1017.45 1017.61 1017.75 1017.86 1017.93 1017.95 1017.91 1017.81 1017.64 1017.41 1017.12 1016.78 1016.40 1016.00 1015.58 1015.17 1014.77 1014.39 1014.04 1013.71 1013.41 1013.12 1012.83 1012.53 1012.21 1011.85 1011.45 1011.00 1010.51 1009.98 1009.42 1008.83 1008.23 1007.61 1006.99 1006.36
1016.10 1016.22 1016.35 1016.48 1016.62 1016.78 1016.94 1017.11 1017.26 1017.40 1017.49 1017.54 1017.54 1017.48 1017.36 1017.18 1016.95 1016.68 1016.37 1016.04 1015.71 1015.38 1015.07 1014.78 1014.52 1014.28 1014.06 1013.86 1013.65 1013.42 1013.16 1012.85 1012.49 1012.08 1011.61 1011.09 1010.54 1009.95 1009.35 1008.75 1008.15 1007.55 1006.95
1015.73 1015.85 1015.98 1016.11 1016.26 1016.42 1016.58 1016.75 1016.90 1017.03 1017.12 1017.16 1017.15 1017.08 1016.96 1016.78 1016.57 1016.32 1016.05 1015.78 1015.52 1015.29 1015.08 1014.90 1014.75 1014.63 1014.52 1014.40 1014.27 1014.10 1013.87 1013.58 1013.21 1012.77 1012.27 1011.71 1011.11 1010.49 1009.87 1009.25 1008.65 1008.06 1007.49
1015.34 1015.46 1015.58 1015.71 1015.86 1016.02 1016.18 1016.34 1016.50 1016.62 1016.71 1016.76 1016.75 1016.69 1016.58 1016.43 1016.24 1016.03 1015.82 1015.62 1015.44 1015.29 1015.18 1015.11 1015.08 1015.06 1015.04 1015.02 1014.95 1014.82 1014.63 1014.34 1013.97 1013.51 1012.96 1012.36 1011.71 1011.05 1010.39 1009.74 1009.13 1008.56 1008.02
1014.93 1015.06 1015.18 1015.30 1015.44 1015.59 1015.75 1015.91 1016.05 1016.17 1016.27 1016.32 1016.32 1016.28 1016.20 1016.08 1015.94 1015.79 1015.64 1015.51 1015.42 1015.36 1015.35 1015.38 1015.44 1015.51 1015.58 1015.63 1015.62 1015.54 1015.37 1015.09 1014.71 1014.22 1013.65 1013.00 1012.31 1011.61 1010.91 1010.24 1009.62 1009.06 1008.56
1014.54 1014.66 1014.78 1014.90 1015.02 1015.15 1015.29 1015.43 1015.56 1015.67 1015.76 1015.82 1015.85 1015.83 1015.79 1015.72 1015.63 1015.55 1015.47 1015.42 1015.41 1015.44 1015.52 1015.63 1015.77 1015.93 1016.07 1016.18 1016.22 1016.17 1016.02 1015.76 1015.37 1014.87 1014.27 1013.60 1012.88 1012.14 1011.42 1010.74 1010.12 1009.57 1009.09
Thickness
5768 5765 5762 5759 5757 5754 5750 5748 5745 5742 5740 5737 5735 5733 5731 5730 5728 5726 5725 5723 5721 5719 5718 5716 5714 5713 5712 5711 5709 5707 5705 5704 5698 5699 5699 5698 5695 5694 5694 5694 5694 5694 5694
5766 5762 5759 5756 5754 5751 5747 5744 5742 5738 5736 5733 5730 5728 5726 5724 5722 5721 5719 5717 5715 5713 5712 5709 5708 5707 5704 5703 5702 5700 5699 5697 5694 5689 5690 5690 5688 5687 5686 5686 5689 5690 5689
5764 5760 5756 5753 5750 5747 5743 5740 5737 5734 5731 5728 5725 5722 5720 5718 5716 5715 5712 5710 5708 5707 5705 5703 5702 5700 5697 5697 5695 5694 5693 5692 5688 5685 5684 5684 5683 5682 5681 5681 5683 5682 5684
5760 5757 5753 5749 5746 5742 5739 5735 5732 5729 5726 5723 5720 5717 5715 5713 5710 5708 5706 5704 5702 5700 5699 5697 5695 5693 5691 5689 5688 5686 5685 5683 5681 5680 5679 5677 5676 5675 5674 5674 5675 5676 5676
5756 5752 5748 5745 5741 5737 5733 5729 5726 5724 5722 5718 5715 5712 5710 5708 5704 5701 5699 5699 5696 5694 5692 5690 5688 5685 5682 5681 5681 5679 5677 5676 5675 5674 5672 5671 5669 5667 5667 5668 5668 5669 5669
5752 5748 5744 5740 5736 5731 5728 5725 5721 5718 5715 5712 5709 5706 5704 5702 5694 5691 5690 5692 5689 5687 5685 5683 5682 5679 5676 5673 5670 5669 5668 5668 5667 5666 5665 5663 5660 5660 5659 5660 5660 5659 5659
5748 5744 5740 5736 5731 5727 5725 5720 5716 5713 5710 5706 5703 5700 5696 5691 5685 5683 5682 5684 5683 5680 5678 5676 5676 5674 5669 5667 5664 5662 5661 5659 5657 5657 5657 5655 5654 5653 5651 5652 5651 5651 5650
5743 5739 5736 5731 5727 5723 5719 5714 5711 5708 5704 5700 5696 5693 5689 5684 5678 5676 5675 5677 5676 5673 5671 5668 5665 5662 5661 5657 5657 5657 5656 5655 5653 5651 5650 5649 5649 5647 5645 5644 5643 5643 5644
5739 5735 5732 5728 5723 5718 5714 5710 5706 5702 5698 5694 5690 5686 5682 5677 5671 5668 5666 5671 5669 5666 5663 5659 5656 5653 5647 5646 5647 5648 5647 5647 5646 5643 5642 5641 5638 5637 5637 5638 5639 5639 5639
5735 5731 5727 5723 5718 5714 5709 5704 5701 5697 5693 5689 5685 5681 5676 5672 5664 5661 5658 5665 5661 5658 5654 5651 5645 5641 5637 5635 5638 5638 5637 5637 5638 5638 5635 5634 5634 5632 5629 5629 5631 5631 5631
5731 5726 5722 5718 5713 5709 5704 5699 5695 5691 5686 5682 5678 5675 5670 5665 5658 5653 5649 5652 5651 5649 5647 5644 5639 5631 5628 5626 5626 5627 5626 5625 5628 5629 5629 5630 5629 5628 5626 5625 5624 5623 5623
5725 5720 5715 5711 5709 5705 5698 5693 5689 5685 5681 5676 5672 5669 5666 5660 5652 5646 5642 5639 5637 5638 5636 5635 5630 5623 5620 5619 5619 5617 5616 5617 5621 5622 5623 5622 5622 5621 5620 5619 5617 5616 5615
5717 5713 5709 5705 5701 5698 5693 5688 5684 5680 5678 5673 5669 5664 5660 5656 5649 5641 5636 5633 5629 5628 5627 5622 5619 5616 5614 5614 5612 5610 5610 5613 5613 5613 5614 5614 5614 5613 5612 5612 5611 5609 5608
5710 5706 5703 5698 5695 5691 5687 5684 5680 5675 5670 5666 5663 5658 5655 5650 5644 5638 5634 5631 5625 5623 5621 5617 5612 5610 5609 5607 5607 5607 5607 5606 5605 5605 5604 5605 5606 5605 5606 5605 5605 5605 5603
5704 5700 5696 5693 5690 5685 5680 5676 5673 5666 5662 5657 5656 5652 5647 5642 5633 5625 5623 5623 5620 5616 5612 5612 5612 5610 5608 5605 5604 5602 5601 5599 5597 5596 5596 5596 5596 5597 5598 5599 5598 5598 5597
5697 5694 5692 5689 5684 5680 5675 5670 5660 5657 5651 5646 5641 5639 5637 5630 5624 5619 5615 5611 5608 5605 5605 5607 5606 5605 5603 5601 5598 5596 5594 5592 5590 5589 5589 5588 5588 5589 5590 5591 5592 5591 5591
5692 5689 5687 5684 5679 5675 5670 5665 5660 5651 5643 5639 5635 5630 5626 5621 5617 5613 5610 5606 5603 5600 5603 5603 5601 5598 5596 5594 5591 5590 5588 5586 5584 5583 5582 5581 5581 5581 5582 5583 5584 5584 5583
5687 5682 5680 5677 5674 5671 5667 5663 5658 5653 5647 5642 5633 5625 5620 5616 5612 5608 5605 5602 5604 5600 5600 5598 5595 5592 5589 5587 5586 5583 5582 5580 5578 5577 5576 5575 5574 5574 5574 5575 5576 5575 5576
5682 5679 5675 5672 5669 5666 5662 5658 5654 5649 5644 5640 5635 5626 5616 5612 5607 5604 5601 5603 5603 5599 5596 5593 5590 5587 5584 5582 5579 5577 5576 5574 5572 5571 5570 5568 5568 5568 5568 5568 5569 5566 5566
5675 5669 5667 5666 5664 5660 5656 5652 5648 5643 5639 5635 5630 5625 5618 5612 5610 5605 5600 5599 5598 5594 5591 5588 5584 5581 5579 5576 5574 5572 5571 5569 5567 5565 5564 5563 5563 5563 5563 5562 5562 5563 5562
5671 5665 5658 5659 5658 5654 5650 5646 5642 5638 5634 5630 5626 5619 5609 5610 5606 5602 5598 5594 5591 5588 5584 5581 5578 5576 5574 5570 5568 5566 5564 5563 5560 5559 5557 5557 5557 5556 5556 5557 5556 5556 5555
5666 5662 5657 5654 5651 5647 5643 5640 5637 5633 5629 5624 5619 5613 5603 5603 5601 5597 5593 5589 5585 5581 5578 5575 5572 5569 5566 5563 5561 5559 5557 5556 5554 5552 5550 5549 5549 5549 5550 5550 5549 5549 5548
5660 5656 5652 5648 5645 5638 5636 5634 5631 5627 5623 5619 5614 5609 5603 5599 5596 5592 5588 5585 5579 5575 5571 5567 5564 5562 5558 5556 5554 5551 5550 5547 5544 5542 5541 5541 5542 5542 5542 5542 5541 5541 5542
5655 5651 5647 5643 5639 5636 5633 5629 5626 5622 5619 5614 5609 5605 5601 5596 5592 5587 5583 5579 5574 5569 5565 5561 5558 5554 5551 5548 5546 5543 5540 5536 5534 5534 5533 5533 5534 5534 5534 5534 5535 5535 5535
5648 5645 5641 5638 5635 5631 5628 5624 5620 5616 5612 5608 5604 5600 5595 5591 5586 5582 5577 5573 5568 5564 5560 5556 5552 5549 5545 5541 5538 5534 5529 5526 5525 5524 5525 5526 5526 5526 5527 5527 5528 5528 5528
5641 5639 5637 5634 5630 5626 5623 5619 5615 5611 5607 5603 5599 5594 5589 5585 5581 5576 5571 5567 5563 5559 5554 5551 5546 5542 5538 5535 5530 5525 5522 5520 5518 5517 5518 5519 5520 5521 5521 5521 5522 5522 5523